Location: Moscow
(55.7500°N, 37.5830°E)
Time: 03:45:38
(UTC+03:00)

Kosmos-337 - Pass Details

Date: 08 July 2022
Orbit: 1467 x 1552 km, 74.0° (Epoch: 13 August)

Event Time Altitude Azimuth Distance (km) Brightness Sun altitude
Rises 00:22:09 0° 330° (NNW) 4,737 ? -11.7°
Reaches altitude 10° 00:25:08 10° 331° (NNW) 3,751 ? -11.7°
Maximum altitude 00:34:23 89° 62° (ENE) 1,553 ? -11.7°
Drops below altitude 10° 00:43:29 10° 154° (SSE) 3,694 ? -11.7°
Enters shadow 00:43:47 - 154° (SSE) 3,796 ? -11.7°
